User: anonymous   Login
Location: York
(31.8935°S, 116.7682°E)
Time: 15:20:38
(UTC+08:00)
Language:

ISS - Orbit

View from above orbital plane
View from above orbital plane
View from above satellite
View from above satellite

Ground track
Ground track

The orbit data is extracted from the following two-line orbital elements,

1 25544U 98067A   22334.13645984  .00014200  00000-0  25304-3 0  9998
2 25544  51.6437 234.4807 0007228 129.2752 217.2561 15.50352180370917
Epoch (UTC): 30 November 2022 03:16:30
Eccentricity: 0.0007228
inclination: 51.6437°
perigee height: 411 km
apogee height: 420 km
right ascension of ascending node: 234.4807°
argument of perigee: 129.2752°
revolutions per day: 15.50352180
mean anomaly at epoch: 217.2561°
orbit number at epoch: 37091

The dashed part of the orbit path shows where the satellite is in the earth's shadow,  

DLR